Content
SEND FEEDBACK

Daily
Averages
Monthly
Summary
United States of America

MOJAVE, CALIFORNIA


Home > North America > United States > California
Elevation: 2748 feet     Latitude: 35 03N     Longitude: 118 10W

WEATHER
 
SELECT A DAY
Number of Records: 127,787;   Date Range: 1/2/95 - 9/29/14
 
SHARE

PRINT THIS DATA

[ ← Previous Day ]
WEATHER ALMANAC - FEBRUARY 13, 2013
[ Next Day → ]
[ °C ]   °F
Weather ElementAverageHighLow
Temperature46.6 °F62.6 °F (3:55 pm)30.2 °F (6:15 am)
Dewpoint17.3 °F28.4 °F (6:55 pm)12.2 °F (4:35 pm)
Humidity34.1 %51 % (4:35 am)15 % (3:55 pm)
Barometer30.24 in30.31 in (8:35 am)30.17 in (4:35 pm)
Wind Speed3.5 mph10.4 mph (8:15 pm)
Weather ElementAverage
Visibility10 mi
Wind DirectionSSE (145.7 °)

Weather ElementTotal
Precipitation---
Heating Degree Days18.6 (Base 65)
Averaged from 69 records on February 13, 2013
WEATHER CONDITIONS BREAKOUT
WIND DIRECTION BREAKOUT
WEATHER BY HOUR - FEBRUARY 13, 2013
[ °C ]   °F
Local TimeTemperatureDewpointHumidityBarometerVisibilityWind DirectionWind SpeedGust SpeedPrecipitationEventsConditions
12:35 AM39.2 °F17.6 °F42 %30.28 in10.0 miWNW (300°)4.6 mphClear
12:55 AM37.4 °F17.6 °F45 %30.28 in10.0 miNorth (350°)4.6 mphClear
1:15 AM37.4 °F15.8 °F41 %30.27 in10.0 miNNW (340°)3.5 mphClear
1:35 AM37.4 °F15.8 °F41 %30.27 in10.0 miNW (320°)3.5 mphClear
1:55 AM37.4 °F15.8 °F41 %30.27 in10.0 miWNW (300°)4.6 mphClear
2:15 AM35.6 °F15.8 °F44 %30.27 in10.0 miCalmClear
2:35 AM37.4 °F17.6 °F45 %30.27 in10.0 miCalmClear
2:55 AM37.4 °F15.8 °F41 %30.26 in10.0 miCalmClear
3:15 AM32.0 °F14.0 °F48 %30.26 in10.0 miCalmClear
3:35 AM33.8 °F14.0 °F44 %30.26 in10.0 miCalmClear
4:15 AM32.0 °F14.0 °F48 %30.25 in10.0 miCalmClear
4:35 AM32.0 °F15.8 °F51 %30.26 in10.0 miCalmClear
4:55 AM32.0 °F14.0 °F48 %30.26 in10.0 miWSW (250°)3.5 mphClear
5:15 AM32.0 °F14.0 °F48 %30.26 in10.0 miWNW (290°)4.6 mphClear
5:35 AM32.0 °F14.0 °F48 %30.26 in10.0 miNNW (330°)5.8 mphClear
5:55 AM32.0 °F14.0 °F48 %30.27 in10.0 miNNW (340°)3.5 mphClear
6:15 AM30.2 °F14.0 °F51 %30.28 in10.0 miNNE (30°)3.5 mphClear
6:35 AM32.0 °F15.8 °F51 %30.28 in9.0 miNorth (10°)3.5 mphClear
6:55 AM32.0 °F15.8 °F51 %30.28 in10.0 miWNW (300°)3.5 mphClear
7:15 AM32.0 °F15.8 °F51 %30.29 in10.0 miCalmClear
7:35 AM35.6 °F15.8 °F44 %30.29 in10.0 miCalmClear
7:55 AM41.0 °F17.6 °F39 %30.30 in10.0 miCalmClear
8:15 AM42.8 °F17.6 °F36 %30.30 in10.0 miCalmClear
8:35 AM42.8 °F15.8 °F34 %30.31 in10.0 miCalmClear
8:55 AM44.6 °F15.8 °F31 %30.31 in10.0 miCalmClear
9:15 AM46.4 °F17.6 °F32 %30.31 in10.0 miCalmClear
9:35 AM48.2 °F17.6 °F30 %30.31 in10.0 miCalmClear
9:55 AM50.0 °F17.6 °F28 %30.31 in10.0 miSouth (190°)3.5 mphClear
10:15 AM50.0 °F15.8 °F26 %30.31 in10.0 miSouth (180°)3.5 mphClear
10:35 AM51.8 °F15.8 °F24 %30.31 in10.0 miSSE (150°)3.5 mphClear
10:55 AM53.6 °F15.8 °F22 %30.30 in10.0 miCalmClear
11:15 AM53.6 °F15.8 °F22 %30.30 in10.0 miCalmClear
11:35 AM55.4 °F15.8 °F21 %30.29 in10.0 miCalmClear
11:55 AM55.4 °F14.0 °F20 %30.28 in10.0 miSE (140°)5.8 mphClear
12:15 PM57.2 °F14.0 °F18 %30.27 in10.0 miEast (90°)5.8 mphClear
12:35 PM57.2 °F14.0 °F18 %30.26 in10.0 miEast (90°)3.5 mphClear
12:55 PM57.2 °F14.0 °F18 %30.24 in10.0 miEast (80°)5.8 mphClear
1:15 PM59.0 °F14.0 °F17 %30.23 in10.0 miEast (90°)5.8 mphClear
1:35 PM59.0 °F14.0 °F17 %30.22 in10.0 miENE (70°)3.5 mphClear
1:55 PM59.0 °F14.0 °F17 %30.21 in10.0 miENE (70°)5.8 mphClear
2:15 PM59.0 °F14.0 °F17 %30.20 in10.0 miCalmClear
2:35 PM60.8 °F14.0 °F16 %30.20 in10.0 miCalmClear
2:55 PM60.8 °F14.0 °F16 %30.19 in10.0 miESE (110°)4.6 mphClear
3:15 PM60.8 °F14.0 °F16 %30.19 in10.0 miEast (90°)5.8 mphClear
3:35 PM60.8 °F14.0 °F16 %30.19 in10.0 miEast (90°)3.5 mphClear
3:55 PM62.6 °F14.0 °F15 %30.18 in10.0 miCalmClear
4:15 PM60.8 °F14.0 °F16 %30.18 in10.0 miSSE (160°)4.6 mphClear
4:35 PM60.8 °F12.2 °F15 %30.17 in10.0 miSE (140°)3.5 mphClear
4:55 PM60.8 °F12.2 °F15 %30.17 in10.0 miESE (110°)3.5 mphClear
5:15 PM59.0 °F12.2 °F16 %30.17 in10.0 miCalmClear
5:35 PM59.0 °F12.2 °F16 %30.17 in10.0 miCalmClear
5:55 PM57.2 °F15.8 °F20 %30.18 in10.0 miSW (230°)5.8 mphClear
6:15 PM53.6 °F24.8 °F33 %30.19 in10.0 miCalmClear
6:35 PM53.6 °F24.8 °F33 %30.19 in10.0 miWNW (290°)6.9 mphClear
6:55 PM51.8 °F28.4 °F41 %30.19 in10.0 miWSW (250°)3.5 mphClear
7:15 PM50.0 °F26.6 °F40 %30.19 in10.0 miWSW (250°)4.6 mphClear
7:35 PM48.2 °F26.6 °F43 %30.19 in10.0 miWest (280°)6.9 mphClear
7:55 PM46.4 °F26.6 °F46 %30.20 in10.0 miWest (280°)9.2 mphClear
8:15 PM48.2 °F26.6 °F43 %30.19 in10.0 miWest (280°)10.4 mphClear
8:35 PM46.4 °F26.6 °F46 %30.20 in10.0 miWNW (290°)5.8 mphClear
8:55 PM46.4 °F26.6 °F46 %30.20 in10.0 miNW (310°)6.9 mphClear
9:15 PM44.6 °F24.8 °F46 %30.20 in10.0 miNW (320°)9.2 mphClear
9:55 PM44.6 °F23.0 °F43 %30.21 in10.0 miNNW (330°)9.2 mphClear
10:15 PM44.6 °F23.0 °F43 %30.21 in10.0 miNNW (330°)8.1 mphClear
10:35 PM44.6 °F23.0 °F43 %30.21 in10.0 miNorth (350°)6.9 mphClear
10:55 PM44.6 °F23.0 °F43 %30.21 in10.0 miNNW (330°)6.9 mphClear
11:15 PM41.0 °F21.2 °F45 %30.22 in10.0 miNW (310°)5.8 mphClear
11:35 PM41.0 °F17.6 °F39 %30.22 in10.0 miNW (310°)5.8 mphClear
11:55 PM39.2 °F17.6 °F42 %30.22 in10.0 miWNW (300°)5.8 mphClear
Hourly data recorded from KMHV, located miles away from Mojave, California







STORIES FROM OUR PARTNERS